Weather History for Akron Canton, OH

Change the Weather History Date:

Monday, December 31, 2012

  Actual Average Record
Temperature  
Mean Temperature 25 °F 27 °F  
Max Temperature 32 °F 34 °F 62 °F (1965)
Min Temperature 18 °F 20 °F -7 °F (1976)
Degree Days  
Heating Degree Days 40 38  
Month to date heating degree days 852 1073  
Since 1 July heating degree days 2146 2330  
Cooling Degree Days 0 0  
Month to date cooling degree days 0 0  
Year to date cooling degree days 1046 652  
Moisture  
Dew Point 23 °F    
Average Humidity 75    
Maximum Humidity 92    
Minimum Humidity 57    
Precipitation  
Precipitation 0.14 in 0.09 in 0.68 in (1978)
Month to date precipitation 4.21 2.84  
Year to date precipitation 37.93 39.62  
Snow  
Snow 1.40 in 0.40 in - ()
Month to date snowfall 13.8 10.2  
Since 1 July snowfall 14.3 13.6  
Snow Depth 6.00 in    
Sea Level Pressure  
Sea Level Pressure 30.12 in    
Wind  
Wind Speed 13 mph (SW)    
Max Wind Speed 22 mph    
Max Gust Speed 25 mph    
Visibility 4 miles    
Events Snow    
T = Trace of Precipitation, MM = Missing Value Source: NWS Daily Summary

Daily Weather History Graph

Daily Weather History Graph

Search for Another Location

Airport:

Trip Planner

Search our weather history database for the weather conditions in past years. The results will help you decide how hot, cold, wet, or windy it might be!

Date:

Astronomy

Dec. 31, 2012 Rise Set
Actual Time 7:50 AM EST 5:07 PM EST
Civil Twilight 7:19 AM EST 5:38 PM EST
Nautical Twilight 6:44 AM EST 6:13 PM EST
Astronomical Twilight 6:11 AM EST 6:46 PM EST
Moon 8:38 PM EST (12/31) 9:29 AM EST (12/31)
Length of Visible Light 10h 19m
Length of Day
9h 17m
Waning Gibbous, 90% of the Moon is Illuminated
Dec 31
Waning Gibbous
Jan 4
Last Quarter
Jan 11
New
Jan 18
First Quarter
Jan 26
Full

Hourly Weather History & Observations

Time (EST) Temp. Windchill Dew Point Humidity Pressure Visibility Wind Dir Wind Speed Gust Speed Precip Events Conditions
12:51 AM 17.6 °F 5.7 °F 15.8 °F 93% 30.25 in 5.0 mi SSW 10.4 mph - N/A   Clear
1:51 AM 19.0 °F 7.5 °F 16.0 °F 88% 30.27 in 5.0 mi SSW 10.4 mph - N/A   Clear
2:51 AM 19.9 °F 9.3 °F 17.1 °F 89% 30.27 in 5.0 mi SW 9.2 mph - N/A   Clear
3:51 AM 19.9 °F 8.6 °F 17.1 °F 89% 30.26 in 5.0 mi SSW 10.4 mph - N/A   Scattered Clouds
4:51 AM 21.9 °F 8.7 °F 18.0 °F 85% 30.22 in 6.0 mi SSW 15.0 mph - N/A   Mostly Cloudy
5:51 AM 23.0 °F 13.9 °F 18.0 °F 81% 30.21 in 6.0 mi SW 8.1 mph - N/A   Haze
6:51 AM 23.0 °F 12.4 °F 18.0 °F 81% 30.21 in 7.0 mi SW 10.4 mph - N/A   Mostly Cloudy
7:51 AM 24.1 °F 12.5 °F 19.0 °F 81% 30.19 in 7.0 mi SSW 12.7 mph - N/A   Overcast
8:51 AM 26.1 °F 14.0 °F 19.0 °F 75% 30.17 in 6.0 mi SW 15.0 mph - N/A   Haze
9:51 AM 27.0 °F 15.2 °F 19.9 °F 75% 30.16 in 6.0 mi SW 15.0 mph - N/A   Haze
10:51 AM 28.9 °F 18.2 °F 21.0 °F 72% 30.16 in 6.0 mi SW 13.8 mph - N/A   Haze
11:51 AM 30.0 °F 20.0 °F 21.0 °F 69% 30.13 in 7.0 mi SW 12.7 mph - N/A   Overcast
12:51 PM 30.9 °F 19.8 °F 21.9 °F 69% 30.09 in 6.0 mi SW 16.1 mph - N/A   Haze
1:51 PM 30.9 °F 19.8 °F 21.9 °F 69% 30.06 in 6.0 mi SW 16.1 mph - N/A   Haze
2:51 PM 30.9 °F 19.1 °F 24.1 °F 76% 30.06 in 2.0 mi SW 18.4 mph - 0.00 in Snow Light Snow
3:06 PM 30.2 °F 18.5 °F 26.6 °F 86% 30.00 in 0.8 mi SW 17.3 mph - 0.00 in Snow Light Snow
3:21 PM 32.0 °F 22.1 °F 26.6 °F 80% 30.00 in 0.8 mi SW 13.8 mph - 0.01 in Snow Light Snow
3:51 PM 30.0 °F 20.0 °F 28.0 °F 92% 30.05 in 0.8 mi SW 12.7 mph - 0.01 in Snow Light Snow
4:51 PM 30.2 °F 19.8 °F 28.4 °F 93% 30.00 in 0.5 mi SW 13.8 mph 20.7 mph N/A Snow Snow
5:51 PM 30.0 °F 18.7 °F 28.0 °F 92% 30.05 in 0.5 mi SW 16.1 mph - 0.05 in Snow Snow
6:39 PM 41.0 °F 32.8 °F 28.4 °F 61% 30.00 in 3.0 mi SW 16.1 mph - 0.01 in   Unknown
6:51 PM 41.0 °F 33.5 °F 28.0 °F 60% 30.03 in 3.0 mi SW 13.8 mph - 0.01 in   Unknown
7:51 PM 42.1 °F 35.2 °F 28.0 °F 58% 30.03 in 3.0 mi WSW 12.7 mph - 0.00 in   Unknown
8:51 PM 32.0 °F 22.5 °F 28.0 °F 85% 30.03 in 3.0 mi WSW 12.7 mph - 0.00 in Snow Light Snow
9:51 PM 30.2 °F 21.9 °F 28.9 °F 95% 30.04 in 3.0 mi WSW 9.2 mph - 0.01 in Snow Light Snow
9:59 PM 32.0 °F 24.2 °F 28.4 °F 87% 29.99 in 2.5 mi WSW 9.2 mph - 0.00 in Snow Light Snow
10:51 PM 31.1 °F 23.1 °F 29.3 °F 93% 30.04 in 2.5 mi WSW 9.2 mph - 0.01 in Snow Light Snow
11:51 PM 32.0 °F 23.6 °F 28.9 °F 88% 30.04 in 4.0 mi WSW 10.4 mph - 0.00 in Snow Light Snow